75

www.moto.it

MX 2018. Herlings si impone nelle qualifiche in Indonesia

75
...

MX 2018. Herlings si impone nelle qualifiche in Indonesia

L’intervento chirurgico necessario per sostituire la placca metallica nella clavicola destra già infortunata e di nuovo spezzata, e le due settimane di mancato allenamento non hanno minimamente scalfito la determinazione di Jeffrey Herlings che come è sceso in pista ha piazzato il secondo miglior crono e si è aggiudicato la qualifica 450 facendo anche il tempo più veloce in gara... Il tutto in una pista affatto facile, martoriata dalla pioggia del giorno prima ma capace di reggere bene al programma della vigilia che ha finalmente scoperto le carte del leader olandese. La sua velocità non è stata intaccata, anche se gli automatismi non sono ancora al 100%, ed ora l’incognita riguarda solo la tenuta fisica ovvero se sarà sufficiente per mantenere i suoi abituali livelli in entrambe le manche del GP. Ad ogni modo se la dovrà guadagnare, perché Tony Cairoli ha tutte le intenzioni di soffiargli la tabella rossa di capoclassifica come ha confermato firmando il tempo più rapido nella manche cronometrata e rendendosi protagonista di un forsennato recupero in qualifica a cui è stato costretto da un paio di errori nella prima parte di qualifica che hanno vanificato la sua partenza in testa al gruppo. Il messinese è stato ripagato dal posto d’onore, davanti a Clement Desalle, Gautier Paulin, Romain Febvre e Tim Gajser; 13° il neo papà Alex Lupino.

Senza storie invece la MX2, che ha visto Jorge Prado partire al comando e tagliare per primo il traguardo dove aver contenuto sul finale la pressione di Ben Watson; 3° Thomas Olsen che ha preceduto il compagno di squadra Thomas Covington e Pauls Jonass, quest’ultimo autore della pole ma incapace di mantenere la 3ª piazza che ha mantenuto sino a metà gara; 10° Michele Cervellin e 15° Simone Furlotti.

CLASSIFICHE

MXGP - Qualifying Race - Classification

Pos Nr Rider Nat. Fed. Bike Time laps Diff. First Diff. Prev. Bestlaptime in lap Speed
1 84 Herlings, Jeffrey NED KNMV KTM 24:01.609 13 0:00.000 0:00.000 1:45.914 1 51.6
2 222 Cairoli, Antonio ITA FMI KTM 24:04.636 13 0:03.027 0:03.027 1:48.008 12 50.6
3 25 Desalle, Clement BEL FMB Kawasaki 24:10.619 13 0:09.010 0:05.983 1:48.425 3 50.4
4 21 Paulin, Gautier FRA MCM Husqvarna 24:19.207 13 0:17.598 0:08.588 1:48.332 2 50.5
5 461 Febvre, Romain FRA FFM Yamaha 24:28.784 13 0:27.175 0:09.577 1:48.298 4 50.5
6 243 Gajser, Tim SLO AMZS Honda 24:30.478 13 0:28.869 0:01.694 1:47.721 3 50.7
7 259 Coldenhoff, Glenn NED KNMV KTM 24:38.881 13 0:37.272 0:08.403 1:48.411 2 50.4
8 91 Seewer, Jeremy SUI FMS Yamaha 24:40.686 13 0:39.077 0:01.805 1:49.938 7 49.7
9 89 Van Horebeek, Jeremy BEL FMB Yamaha 24:42.490 13 0:40.881 0:01.804 1:49.854 3 49.8
10 33 Lieber, Julien BEL FMB Kawasaki 24:44.901 13 0:43.292 0:02.411 1:49.708 4 49.8
11 12 Nagl, Maximilian GER DMSB TM 24:48.151 13 0:46.542 0:03.250 1:51.076 2 49.2
12 99 Anstie, Max GBR ACU Husqvarna 24:54.448 13 0:52.839 0:06.297 1:48.445 3 50.4
13 77 Lupino, Alessandro ITA FMI Kawasaki 24:56.406 13 0:54.797 0:01.958 1:51.278 8 49.1
14 777 Bobryshev, Evgeny RUS MFR Suzuki 24:58.418 13 0:56.809 0:02.012 1:51.082 4 49.2
15 27 Jasikonis, Arminas LTU LMSF Honda 25:08.729 13 1:07.120 0:10.311 1:52.640 5 48.5
16 24 Simpson, Shaun GBR ACU Yamaha 25:11.871 13 1:10.262 0:03.142 1:51.540 3 49
17 22 Strijbos, Kevin BEL FMB KTM 25:15.903 13 1:14.294 0:04.032 1:51.289 3 49.1
18 42 Waters, Todd AUS MA Honda 25:19.573 13 1:17.964 0:03.670 1:52.177 2 48.7
19 92 Guillod, Valentin SUI FMS KTM 25:21.577 13 1:19.968 0:02.004 1:51.064 3 49.2
20 336 Stewart, Lewis AUS IMI Husqvarna 24:49.856 12 1 lap 1 lap 1:59.952 5 45.6

MX2 - Qualifying Race - Classification

Pos Nr Rider Nat. Fed. Bike Time laps Diff. First Diff. Prev. Bestlaptime in lap Speed
1 61 Prado, Jorge ESP RFME KTM 24:05.264 13 0:00.000 0:00.000 1:47.953 3 50.6
2 919 Watson, Ben GBR ACU Yamaha 24:06.318 13 0:01.054 0:01.054 1:48.435 3 50.4
3 19 Olsen, Thomas Kjer DEN DMU Husqvarna 24:20.777 13 0:15.513 0:14.459 1:49.187 5 50.1
4 64 Covington, Thomas USA MUL Husqvarna 24:24.215 13 0:18.951 0:03.438 1:49.421 6 50
5 1 Jonass, Pauls LAT LAMSF KTM 24:26.176 13 0:20.912 0:01.961 1:48.646 5 50.3
6 10 Vlaanderen, Calvin RSA KNMV Honda 24:38.034 13 0:32.770 0:11.858 1:49.670 6 49.8
7 29 Jacobi, Henry GER DMSB Husqvarna 24:47.151 13 0:41.887 0:09.117 1:50.389 6 49.5
8 193 Geerts, Jago BEL FMB Yamaha 24:49.248 13 0:43.984 0:02.097 1:50.285 5 49.6
9 46 Pootjes, Davy NED KNMV KTM 24:51.040 13 0:45.776 0:01.792 1:50.529 9 49.5
10 747 Cervellin, Michele ITA FMI Yamaha 25:01.285 13 0:56.021 0:10.245 1:51.461 5 49
11 811 Sterry, Adam GBR ACU Kawasaki 25:03.006 13 0:57.742 0:01.721 1:50.857 4 49.3
12 172 Van doninck, Brent BEL FMB Husqvarna 25:07.275 13 1:02.011 0:04.269 1:51.136 4 49.2
13 98 Vaessen, Bas NED KNMV Honda 25:08.547 13 1:03.283 0:01.272 1:52.027 4 48.8
14 66 Larranaga Olano, Iker ESP RFME Husqvarna 25:26.540 13 1:21.276 0:17.993 1:51.727 3 48.9
15 95 Furlotti, Simone ITA FMI Yamaha 25:29.683 13 1:24.419 0:03.143 1:53.074 4 48.3
16 281 Pattipi, Yosua INA IMI Husqvarna 24:57.695 11 2 laps 2 laps 2:05.966 3 43.4
17 206 Ismayana, Diva INA IMI Husqvarna 25:47.728 11 2 laps 0:50.033 2:05.008 2 43.7
18 325 Delvintor Alfarizi, Muhammad INA IMI Husqvarna 25:50.663 11 2 laps 0:02.935 1:59.871 4 45.6
19 204 Maksum, Hilman INA IMI Husqvarna 26:11.304 11 2 laps 0:20.641 2:10.815 4 41.8